KB6OQJ Weather Reports


Display with metric or nautical units.
time (UTC)temp
F
wind
direction
speed
MPH
gust
MPH
rain 1hr
in
rain 24hr
in
rain mn
in
humidity
%
barometer
mb
20260902134004 47 232 0.0 0.0 0.00 0.00 0.00 72 805.6
20260902133004 47 232 0.0 0.0 0.00 0.00 0.00 73 805.6
20260902132004 47 232 0.0 0.0 0.00 0.00 0.00 73 805.6
20260902130004 48 231 0.0 0.0 0.00 0.00 0.00 73 805.6
20260902125003 48 231 0.0 0.0 0.00 0.00 0.00 73 805.6
20260902124004 48 231 0.0 0.0 0.00 0.00 0.00 73 805.6
20260902123004 48 231 0.0 0.0 0.00 0.00 0.00 73 805.6
20260902122004 49 230 0.0 0.0 0.00 0.00 0.00 73 805.6
20260902120004 49 230 0.0 0.0 0.00 0.00 0.00 73 805.6
20260902115004 49 230 0.0 0.0 0.00 0.00 0.00 75 805.6
20260902111004 50 230 0.0 0.0 0.00 0.00 0.00 75 805.6
20260902110005 50 230 0.0 0.0 0.00 0.00 0.00 76 805.6
20260902104003 51 229 0.0 0.0 0.00 0.00 0.00 77 805.6
20260902103004 51 229 0.0 0.0 0.00 0.00 0.00 77 805.6
20260902102004 52 229 0.0 0.0 0.00 0.00 0.00 77 805.6
20260902101003 52 229 0.0 0.0 0.00 0.00 0.00 77 805.6
20260902100004 52 229 0.0 0.0 0.00 0.00 0.00 77 805.6
20260902094004 53 229 0.0 0.0 0.00 0.00 0.00 77 805.6
20260902093004 53 229 0.0 0.0 0.00 0.00 0.00 77 805.6
20260902092003 53 229 0.0 0.0 0.00 0.00 0.00 76 805.6
20260902091004 54 229 0.0 0.0 0.00 0.00 0.00 76 805.6
20260902090004 54 229 0.0 0.0 0.00 0.00 0.00 76 836.1
20260902085004 54 229 0.0 0.0 0.00 0.00 0.00 77 836.1
20260902084003 55 229 0.0 0.0 0.00 0.00 0.00 77 836.1
20260902082004 56 228 0.0 0.0 0.00 0.00 0.00 77 836.1
20260902081004 56 228 0.0 0.0 0.00 0.00 0.00 77 836.1
20260902080004 56 228 0.0 0.0 0.00 0.00 0.00 77 836.1
20260902075004 57 228 0.0 0.0 0.00 0.00 0.00 77 836.1
20260902074004 57 228 0.0 0.0 0.00 0.00 0.00 77 836.1
20260902072003 58 228 0.0 0.0 0.00 0.00 0.00 77 836.1
20260902071004 59 228 0.0 0.0 0.00 0.00 0.00 77 836.1
20260902070006 59 228 0.0 0.0 0.00 0.00 0.00 77 836.1
20260902065004 59 228 0.0 0.0 0.00 0.00 0.00 77 836.1
20260902064004 59 228 0.0 0.0 0.00 0.00 0.00 77 836.1
20260902063004 60 228 0.0 0.0 0.00 0.00 0.00 77 836.1
20260902062004 60 228 0.0 0.0 0.00 0.00 0.00 77 836.1
20260902061004 60 228 0.0 0.0 0.00 0.00 0.00 76 985.4
20260902060004 61 305 0.0 0.0 0.00 0.00 0.00 76 985.4
20260902055004 61 305 0.0 0.0 0.00 0.00 0.00 76 985.4
20260902054004 61 305 0.0 0.0 0.00 0.00 0.00 76 985.4
20260902053004 61 305 0.0 0.0 0.00 0.00 0.00 76 985.4
20260902051004 61 305 0.0 0.0 0.00 0.00 0.00 76 985.4
20260902050006 61 305 0.0 0.0 0.00 0.00 0.00 75 890.1
20260902045004 61 304 0.0 0.0 0.00 0.00 0.00 73 890.1
20260902044004 61 304 0.0 0.0 0.00 0.00 0.00 71 890.1
20260902043004 61 316 0.0 0.0 0.00 0.00 0.00 70 890.1
20260902041004 62 310 0.0 0.0 0.00 0.00 0.00 69 891.9
20260902040004 62 310 0.0 0.0 0.00 0.00 0.00 68 892.4
20260902035004 63 310 0.0 0.0 0.00 0.00 0.00 67 889.1
20260902034004 63 302 0.0 0.0 0.00 0.00 0.00 67 880.3
20260902033004 64 319 0.0 0.0 0.00 0.00 0.00 67 880.3
20260902032004 64 322 0.0 1.0 0.00 0.00 0.00 65 886.1
20260902031003 64 349 0.0 0.0 0.00 0.00 0.00 62 887.9
20260902030004 65 313 0.0 0.0 0.00 0.00 0.00 61 874.3
20260902025004 65 339 0.0 0.0 0.00 0.00 0.00 60 881.4
20260902024004 66 25 0.0 0.0 0.00 0.00 0.00 59 891.0
20260902023004 66 319 0.0 10.0 0.00 0.00 0.00 58 891.0
20260902022003 67 327 2.0 10.0 0.00 0.00 0.00 57 886.8
20260902021004 67 329 2.0 12.0 0.00 0.00 0.00 56 886.6
20260902020004 68 356 0.0 10.0 0.00 0.00 0.00 54 886.3
20260902015003 69 356 1.0 10.0 0.00 0.00 0.00 53 886.3
20260902014004 70 335 0.0 6.0 0.00 0.00 0.00 53 886.3
20260902013004 71 318 3.0 13.0 0.00 0.00 0.00 52 886.3
20260902012004 71 265 3.0 14.0 0.00 0.00 0.00 51 889.7
20260902011004 72 319 0.0 12.0 0.00 0.00 0.00 50 877.6
20260902010004 73 293 4.0 16.0 0.00 0.00 0.00 49 877.6
20260902005004 73 283 8.0 15.0 0.00 0.00 0.00 47 877.6
20260902004004 74 308 3.0 12.0 0.00 0.00 0.00 47 877.6
20260902003004 75 280 6.0 14.0 0.00 0.00 0.00 46 877.6
20260902002004 76 294 1.0 13.0 0.00 0.00 0.00 45 877.6
20260902000003 77 283 9.0 16.0 0.00 0.00 0.00 43 877.6
20260901235004 78 300 1.0 15.0 0.00 0.00 0.00 43 877.6
20260901233004 79 300 5.0 17.0 0.00 0.00 0.00 41 877.6
20260901232004 79 294 7.0 14.0 0.00 0.00 0.00 41 877.6
20260901231004 80 270 5.0 16.0 0.00 0.00 0.00 40 877.6
20260901230004 79 294 6.0 17.0 0.00 0.00 0.00 41 877.6
20260901225004 80 296 4.0 20.0 0.00 0.00 0.00 41 877.6
20260901223005 80 298 8.0 17.0 0.00 0.00 0.00 40 877.0
20260901222004 81 277 5.0 17.0 0.00 0.00 0.00 40 889.3
20260901221003 81 273 5.0 17.0 0.00 0.00 0.00 40 889.3
20260901220004 82 301 6.0 17.0 0.00 0.00 0.00 39 898.6
20260901213004 82 287 9.0 17.0 0.00 0.00 0.00 38 1043.8
20260901210004 83 294 9.0 16.0 0.00 0.00 0.00 38 839.8
20260901205003 82 320 3.0 13.0 0.00 0.00 0.00 39 839.8
20260901204003 82 292 7.0 14.0 0.00 0.00 0.00 39 839.8
20260901203004 81 276 0.0 1.0 0.00 0.00 0.00 39 839.8
20260901202004 80 240 1.0 12.0 0.00 0.00 0.00 40 839.8
20260901201004 80 220 3.0 12.0 0.00 0.00 0.00 40 839.8
20260901200003 80 294 3.0 10.0 0.00 0.00 0.00 41 839.8
20260901195003 80 229 0.0 0.0 0.00 0.00 0.00 43 839.8
20260901194004 79 264 0.0 0.0 0.00 0.00 0.00 45 928.8
20260901193003 78 245 0.0 0.0 0.00 0.00 0.00 45 936.9
20260901192003 78 5 0.0 0.0 0.00 0.00 0.00 46 936.9
20260901190003 76 205 0.0 0.0 0.00 0.00 0.00 48 936.9
20260901185004 75 218 0.0 0.0 0.00 0.00 0.00 49 936.9
20260901184004 75 177 0.0 0.0 0.00 0.00 0.00 50 936.9
20260901183004 75 239 0.0 0.0 0.00 0.00 0.00 51 936.9
20260901182004 74 210 0.0 7.0 0.00 0.00 0.00 53 936.9
20260901180004 72 52 0.0 0.0 0.00 0.00 0.00 56 936.9
20260901175003 94 96 0.0 0.0 0.00 0.00 0.00 35 936.9
20260901174006 94 78 0.0 0.0 0.00 0.00 0.00 35 936.9
20260901173003 94 257 0.0 0.0 0.00 0.00 0.00 35 936.9
20260901172004 94 55 0.0 0.0 0.00 0.00 0.00 35 936.9
20260901171004 94 354 0.0 0.0 0.00 0.00 0.00 35 936.9
20260901170004 94 326 0.0 0.0 0.00 0.00 0.00 35 936.9
20260901165004 94 41 0.0 0.0 0.00 0.00 0.00 35 936.9